Year,Month,Day,Hour,Minute,Value (Times are PST for windspeed in km/hr)
2017,05,24,00,00,1.40
2017,05,24,00,01,2.80
2017,05,24,00,02,4.00
2017,05,24,00,03,4.20
2017,05,24,00,04,5.30
2017,05,24,00,05,4.80
2017,05,24,00,06,4.50
2017,05,24,00,07,6.10
2017,05,24,00,08,4.60
2017,05,24,00,09,5.80
2017,05,24,00,10,5.30
2017,05,24,00,11,6.50
2017,05,24,00,12,5.90
2017,05,24,00,13,5.90
2017,05,24,00,14,4.20
2017,05,24,00,15,5.20
2017,05,24,00,16,5.50
2017,05,24,00,17,5.80
2017,05,24,00,18,9.10
2017,05,24,00,19,6.80
2017,05,24,00,20,4.40
2017,05,24,00,21,4.00
2017,05,24,00,22,3.20
2017,05,24,00,23,4.00
2017,05,24,00,24,2.90
2017,05,24,00,25,3.10
2017,05,24,00,26,5.50
2017,05,24,00,27,5.40
2017,05,24,00,28,4.40
2017,05,24,00,29,3.10
2017,05,24,00,30,2.70
2017,05,24,00,31,2.70
2017,05,24,00,32,2.70
2017,05,24,00,33,3.60
2017,05,24,00,34,3.60
2017,05,24,00,35,4.00
2017,05,24,00,36,3.40
2017,05,24,00,37,4.30
2017,05,24,00,38,3.80
2017,05,24,00,39,3.90
2017,05,24,00,40,2.70
2017,05,24,00,41,2.60
2017,05,24,00,42,3.40
2017,05,24,00,43,3.80
2017,05,24,00,44,3.30
2017,05,24,00,45,3.10
2017,05,24,00,46,2.90
2017,05,24,00,47,3.30
2017,05,24,00,48,2.70
2017,05,24,00,49,3.90
2017,05,24,00,50,3.20
2017,05,24,00,51,3.60
2017,05,24,00,52,3.70
2017,05,24,00,53,3.90
2017,05,24,00,54,4.30
2017,05,24,00,55,4.80
2017,05,24,00,56,5.20
2017,05,24,00,57,4.70
2017,05,24,00,58,5.70
2017,05,24,00,59,5.50
2017,05,24,01,00,4.80
2017,05,24,01,01,6.90
2017,05,24,01,02,5.60
2017,05,24,01,03,4.20
2017,05,24,01,04,3.40
2017,05,24,01,05,3.90
2017,05,24,01,06,3.10
2017,05,24,01,07,1.60
2017,05,24,01,08,2.30
2017,05,24,01,09,3.40
2017,05,24,01,10,2.80
2017,05,24,01,11,2.90
2017,05,24,01,12,3.90
2017,05,24,01,13,3.60
2017,05,24,01,14,3.90
2017,05,24,01,15,3.10
2017,05,24,01,16,4.30
2017,05,24,01,17,5.40
2017,05,24,01,18,5.20
2017,05,24,01,19,4.50
2017,05,24,01,20,3.20
2017,05,24,01,21,4.30
2017,05,24,01,22,3.40
2017,05,24,01,23,4.50
2017,05,24,01,24,5.80
2017,05,24,01,25,5.20
2017,05,24,01,26,4.70
2017,05,24,01,27,7.20
2017,05,24,01,28,6.10
2017,05,24,01,29,3.50
2017,05,24,01,30,4.10
2017,05,24,01,31,2.50
2017,05,24,01,32,2.50
2017,05,24,01,33,4.30
2017,05,24,01,34,5.00
2017,05,24,01,35,4.70
2017,05,24,01,36,4.80
2017,05,24,01,37,3.90
2017,05,24,01,38,3.00
2017,05,24,01,39,2.00
2017,05,24,01,40,2.40
2017,05,24,01,41,2.40
2017,05,24,01,42,2.80
2017,05,24,01,43,2.40
2017,05,24,01,44,1.20
2017,05,24,01,45,2.10
2017,05,24,01,46,1.50
2017,05,24,01,47,0.80
2017,05,24,01,48,2.40
2017,05,24,01,49,0.20
2017,05,24,01,50,0.70
2017,05,24,01,51,1.20
2017,05,24,01,52,0.00
2017,05,24,01,53,0.00
2017,05,24,01,54,0.00
2017,05,24,01,55,0.00
2017,05,24,01,56,0.00
2017,05,24,01,57,0.00
2017,05,24,01,58,0.00
2017,05,24,01,59,0.80
2017,05,24,02,00,0.80
2017,05,24,02,01,0.00
2017,05,24,02,02,0.00
2017,05,24,02,03,0.00
2017,05,24,02,04,0.00
2017,05,24,02,05,0.00
2017,05,24,02,06,0.00
2017,05,24,02,07,0.00
2017,05,24,02,08,0.00
2017,05,24,02,09,0.00
2017,05,24,02,10,0.00
2017,05,24,02,11,0.10
2017,05,24,02,12,0.00
2017,05,24,02,13,0.00
2017,05,24,02,14,3.20
2017,05,24,02,15,5.00
2017,05,24,02,16,4.00
2017,05,24,02,17,4.70
2017,05,24,02,18,4.40
2017,05,24,02,19,5.10
2017,05,24,02,20,3.60
2017,05,24,02,21,4.60
2017,05,24,02,22,4.60
2017,05,24,02,23,5.10
2017,05,24,02,24,6.20
2017,05,24,02,25,6.10
2017,05,24,02,26,6.10
2017,05,24,02,27,6.70
2017,05,24,02,28,4.80
2017,05,24,02,29,4.90
2017,05,24,02,30,3.60
2017,05,24,02,31,5.00
2017,05,24,02,32,5.80
2017,05,24,02,33,5.40
2017,05,24,02,34,6.00
2017,05,24,02,35,4.80
2017,05,24,02,36,3.80
2017,05,24,02,37,2.70
2017,05,24,02,38,2.20
2017,05,24,02,39,2.10
2017,05,24,02,40,2.00
2017,05,24,02,41,2.50
2017,05,24,02,42,3.10
2017,05,24,02,43,1.40
2017,05,24,02,44,0.10
2017,05,24,02,45,2.00
2017,05,24,02,46,0.50
2017,05,24,02,47,0.00
2017,05,24,02,48,0.10
2017,05,24,02,49,4.60
2017,05,24,02,50,4.00
2017,05,24,02,51,4.20
2017,05,24,02,52,3.40
2017,05,24,02,53,1.80
2017,05,24,02,54,2.30
2017,05,24,02,55,2.40
2017,05,24,02,56,2.30
2017,05,24,02,57,2.70
2017,05,24,02,58,1.90
2017,05,24,02,59,0.40
2017,05,24,03,00,0.00
2017,05,24,03,01,0.00
2017,05,24,03,02,0.00
2017,05,24,03,03,0.00
2017,05,24,03,04,0.00
2017,05,24,03,05,1.30
2017,05,24,03,06,1.30
2017,05,24,03,07,1.80
2017,05,24,03,08,1.90
2017,05,24,03,09,1.40
2017,05,24,03,10,0.30
2017,05,24,03,11,1.50
2017,05,24,03,12,2.80
2017,05,24,03,13,1.60
2017,05,24,03,14,0.30
2017,05,24,03,15,0.00
2017,05,24,03,16,2.00
2017,05,24,03,17,1.50
2017,05,24,03,18,2.20
2017,05,24,03,19,3.90
2017,05,24,03,20,2.70
2017,05,24,03,21,3.90
2017,05,24,03,22,1.90
2017,05,24,03,23,2.20
2017,05,24,03,24,1.70
2017,05,24,03,25,2.10
2017,05,24,03,26,3.00
2017,05,24,03,27,3.10
2017,05,24,03,28,4.40
2017,05,24,03,29,4.40
2017,05,24,03,30,2.20
2017,05,24,03,31,2.80
2017,05,24,03,32,5.30
2017,05,24,03,33,4.90
2017,05,24,03,34,4.80
2017,05,24,03,35,6.50
2017,05,24,03,36,4.00
2017,05,24,03,37,5.00
2017,05,24,03,38,6.80
2017,05,24,03,39,5.00
2017,05,24,03,40,6.10
2017,05,24,03,41,6.10
2017,05,24,03,42,5.50
2017,05,24,03,43,5.90
2017,05,24,03,44,5.80
2017,05,24,03,45,3.30
2017,05,24,03,46,3.00
2017,05,24,03,47,2.20
2017,05,24,03,48,2.90
2017,05,24,03,49,3.20
2017,05,24,03,50,3.70
2017,05,24,03,51,3.10
2017,05,24,03,52,1.00
2017,05,24,03,53,0.90
2017,05,24,03,54,1.80
2017,05,24,03,55,2.50
2017,05,24,03,56,2.40
2017,05,24,03,57,2.10
2017,05,24,03,58,3.20
2017,05,24,03,59,2.90
2017,05,24,04,00,3.40
2017,05,24,04,01,3.40
2017,05,24,04,02,1.80
2017,05,24,04,03,3.10
2017,05,24,04,04,2.50
2017,05,24,04,05,2.90
2017,05,24,04,06,2.80
2017,05,24,04,07,2.80
2017,05,24,04,08,3.80
2017,05,24,04,09,3.60
2017,05,24,04,10,3.60
2017,05,24,04,11,3.30
2017,05,24,04,12,5.70
2017,05,24,04,13,5.20
2017,05,24,04,14,3.40
2017,05,24,04,15,3.70
2017,05,24,04,16,3.10
2017,05,24,04,17,3.60
2017,05,24,04,18,3.50
2017,05,24,04,19,3.80
2017,05,24,04,20,3.90
2017,05,24,04,21,3.10
2017,05,24,04,22,3.30
2017,05,24,04,23,4.00
2017,05,24,04,24,6.50
2017,05,24,04,25,4.30
2017,05,24,04,26,4.20
2017,05,24,04,27,8.00
2017,05,24,04,28,5.00
2017,05,24,04,29,6.70
2017,05,24,04,30,5.60
2017,05,24,04,31,4.60
2017,05,24,04,32,4.30
2017,05,24,04,33,5.60
2017,05,24,04,34,5.00
2017,05,24,04,35,5.30
2017,05,24,04,36,4.60
2017,05,24,04,37,5.00
2017,05,24,04,38,5.00
2017,05,24,04,39,5.00
2017,05,24,04,40,2.90
2017,05,24,04,41,2.50
2017,05,24,04,42,3.90
2017,05,24,04,43,3.80
2017,05,24,04,44,5.60
2017,05,24,04,45,6.00
2017,05,24,04,46,3.60
2017,05,24,04,47,4.40
2017,05,24,04,48,2.90
2017,05,24,04,49,3.80
2017,05,24,04,50,2.00
2017,05,24,04,51,0.50
2017,05,24,04,52,2.00
2017,05,24,04,53,2.00
2017,05,24,04,54,2.60
2017,05,24,04,55,0.20
2017,05,24,04,56,0.40
2017,05,24,04,57,1.10
2017,05,24,04,58,1.90
2017,05,24,04,59,2.90
2017,05,24,05,00,3.90
2017,05,24,05,01,0.70
2017,05,24,05,02,0.00
2017,05,24,05,03,0.20
2017,05,24,05,04,2.30
2017,05,24,05,05,2.40
2017,05,24,05,06,4.00
2017,05,24,05,07,4.20
2017,05,24,05,08,2.40
2017,05,24,05,09,2.30
2017,05,24,05,10,3.60
2017,05,24,05,11,5.10
2017,05,24,05,12,3.00
2017,05,24,05,13,2.40
2017,05,24,05,14,4.20
2017,05,24,05,15,4.70
2017,05,24,05,16,1.80
2017,05,24,05,17,2.40
2017,05,24,05,18,2.00
2017,05,24,05,19,2.70
2017,05,24,05,20,0.50
2017,05,24,05,21,0.80
2017,05,24,05,22,2.20
2017,05,24,05,23,0.20
2017,05,24,05,24,2.20
2017,05,24,05,25,2.40
2017,05,24,05,26,0.60
2017,05,24,05,27,1.30
2017,05,24,05,28,2.10
2017,05,24,05,29,3.10
2017,05,24,05,30,2.90
2017,05,24,05,31,0.00
2017,05,24,05,32,1.70
2017,05,24,05,33,1.40
2017,05,24,05,34,0.00
2017,05,24,05,35,0.00
2017,05,24,05,36,0.00
2017,05,24,05,37,0.00
2017,05,24,05,38,0.00
2017,05,24,05,39,0.00
2017,05,24,05,40,0.00
2017,05,24,05,41,0.00
2017,05,24,05,42,0.10
2017,05,24,05,43,0.00
2017,05,24,05,44,0.00
2017,05,24,05,45,0.00
2017,05,24,05,46,0.00
2017,05,24,05,47,0.00
2017,05,24,05,48,0.00
2017,05,24,05,49,0.00
2017,05,24,05,50,0.00
2017,05,24,05,51,0.00
2017,05,24,05,52,0.00
2017,05,24,05,53,0.00
2017,05,24,05,54,0.00
2017,05,24,05,55,0.00
2017,05,24,05,56,0.00
2017,05,24,05,57,0.00
2017,05,24,05,58,0.00
2017,05,24,05,59,0.00
2017,05,24,06,00,0.10
2017,05,24,06,01,0.00
2017,05,24,06,02,0.00
2017,05,24,06,03,0.00
2017,05,24,06,04,0.00
2017,05,24,06,05,0.10
2017,05,24,06,06,0.00
2017,05,24,06,07,0.00
2017,05,24,06,08,0.10
2017,05,24,06,09,0.00
2017,05,24,06,10,0.00
2017,05,24,06,11,0.00
2017,05,24,06,12,0.00
2017,05,24,06,13,0.00
2017,05,24,06,14,0.00
2017,05,24,06,15,0.00
2017,05,24,06,16,0.00
2017,05,24,06,17,0.00
2017,05,24,06,18,0.00
2017,05,24,06,19,0.00
2017,05,24,06,20,0.00
2017,05,24,06,21,0.00
2017,05,24,06,22,0.10
2017,05,24,06,23,3.40
2017,05,24,06,24,3.50
2017,05,24,06,25,0.00
2017,05,24,06,26,0.00
2017,05,24,06,27,2.30
2017,05,24,06,28,3.40
2017,05,24,06,29,3.90
2017,05,24,06,30,4.40
2017,05,24,06,31,2.10
2017,05,24,06,32,3.60
2017,05,24,06,33,4.10
2017,05,24,06,34,3.60
2017,05,24,06,35,3.60
2017,05,24,06,36,3.20
2017,05,24,06,37,1.90
2017,05,24,06,38,0.00
2017,05,24,06,39,0.00
2017,05,24,06,40,0.00
2017,05,24,06,41,0.00
2017,05,24,06,42,0.00
2017,05,24,06,43,0.00
2017,05,24,06,44,0.00
2017,05,24,06,45,0.10
2017,05,24,06,46,1.40
2017,05,24,06,47,2.70
2017,05,24,06,48,0.40
2017,05,24,06,49,1.80
2017,05,24,06,50,3.10
2017,05,24,06,51,4.20
2017,05,24,06,52,4.10
2017,05,24,06,53,5.50
2017,05,24,06,54,5.60
2017,05,24,06,55,5.90
2017,05,24,06,56,5.00
2017,05,24,06,57,5.20
2017,05,24,06,58,2.90
2017,05,24,06,59,2.00
2017,05,24,07,00,0.70
2017,05,24,07,01,0.00
2017,05,24,07,02,0.10
2017,05,24,07,03,5.00
2017,05,24,07,04,2.10
2017,05,24,07,05,2.80
2017,05,24,07,06,2.20
2017,05,24,07,07,3.40
2017,05,24,07,08,2.10
2017,05,24,07,09,1.10
2017,05,24,07,10,2.30
2017,05,24,07,11,3.50
2017,05,24,07,12,4.50
2017,05,24,07,13,4.10
2017,05,24,07,14,4.50
2017,05,24,07,15,5.30
2017,05,24,07,16,3.80
2017,05,24,07,17,4.20
2017,05,24,07,18,3.60
2017,05,24,07,19,5.00
2017,05,24,07,20,2.50
2017,05,24,07,21,1.10
2017,05,24,07,22,6.00
2017,05,24,07,23,6.10
2017,05,24,07,24,4.30
2017,05,24,07,25,4.70
2017,05,24,07,26,3.40
2017,05,24,07,27,1.60
2017,05,24,07,28,1.40
2017,05,24,07,29,0.70
2017,05,24,07,30,0.00
2017,05,24,07,31,0.00
2017,05,24,07,32,0.00
2017,05,24,07,33,0.00
2017,05,24,07,34,0.00
2017,05,24,07,35,0.00
2017,05,24,07,36,0.00
2017,05,24,07,37,0.00
2017,05,24,07,38,0.00
2017,05,24,07,39,0.00
2017,05,24,07,40,0.00
2017,05,24,07,41,0.00
2017,05,24,07,42,0.00
2017,05,24,07,43,0.00
2017,05,24,07,44,0.00
2017,05,24,07,45,0.00
2017,05,24,07,46,0.00
2017,05,24,07,47,0.00
2017,05,24,07,48,0.00
2017,05,24,07,49,0.10
2017,05,24,07,50,0.00
2017,05,24,07,51,0.00
2017,05,24,07,52,0.00
2017,05,24,07,53,0.00
2017,05,24,07,54,0.00
2017,05,24,07,55,0.00
2017,05,24,07,56,0.00
2017,05,24,07,57,0.00
2017,05,24,07,58,0.00
2017,05,24,07,59,0.00
2017,05,24,08,00,0.00
2017,05,24,08,01,0.00
2017,05,24,08,02,0.00
2017,05,24,08,03,0.00
2017,05,24,08,04,0.10
2017,05,24,08,05,0.00
2017,05,24,08,06,0.00
2017,05,24,08,07,0.00
2017,05,24,08,08,0.00
2017,05,24,08,09,0.10
2017,05,24,08,10,0.00
2017,05,24,08,11,0.00
2017,05,24,08,12,0.10
2017,05,24,08,13,0.00
2017,05,24,08,14,0.00
2017,05,24,08,15,0.00
2017,05,24,08,16,0.00
2017,05,24,08,17,0.00
2017,05,24,08,18,0.00
2017,05,24,08,19,0.00
2017,05,24,08,20,0.00
2017,05,24,08,21,0.10
2017,05,24,08,22,0.00
2017,05,24,08,23,0.00
2017,05,24,08,24,0.00
2017,05,24,08,25,0.00
2017,05,24,08,26,0.00
2017,05,24,08,27,0.00
2017,05,24,08,28,0.00
2017,05,24,08,29,0.00
2017,05,24,08,30,0.00
2017,05,24,08,31,0.00
2017,05,24,08,32,0.00
2017,05,24,08,33,0.00
2017,05,24,08,34,1.90
2017,05,24,08,35,4.90
2017,05,24,08,36,5.20
2017,05,24,08,37,4.10
2017,05,24,08,38,2.30
2017,05,24,08,39,3.00
2017,05,24,08,40,2.20
2017,05,24,08,41,1.30
2017,05,24,08,42,0.10
2017,05,24,08,43,0.00
2017,05,24,08,44,0.00
2017,05,24,08,45,0.00
2017,05,24,08,46,0.00
2017,05,24,08,47,0.00
2017,05,24,08,48,0.00
2017,05,24,08,49,0.00
2017,05,24,08,50,0.00
2017,05,24,08,51,0.10
2017,05,24,08,52,0.00
2017,05,24,08,53,0.00
2017,05,24,08,54,0.00
2017,05,24,08,55,0.00
2017,05,24,08,56,0.00
2017,05,24,08,57,0.00
2017,05,24,08,58,0.00
2017,05,24,08,59,0.10
2017,05,24,09,00,0.00
2017,05,24,09,01,0.00
2017,05,24,09,02,0.00
2017,05,24,09,03,0.00
2017,05,24,09,04,0.10
2017,05,24,09,05,0.00
2017,05,24,09,06,0.00
2017,05,24,09,07,0.10
2017,05,24,09,08,0.00
2017,05,24,09,09,3.70
2017,05,24,09,10,4.40
2017,05,24,09,11,4.80
2017,05,24,09,12,6.60
2017,05,24,09,13,6.10
2017,05,24,09,14,5.40
2017,05,24,09,15,4.40
2017,05,24,09,16,0.30
2017,05,24,09,17,0.10
2017,05,24,09,18,0.00
2017,05,24,09,19,0.00
2017,05,24,09,20,0.10
2017,05,24,09,21,0.00
2017,05,24,09,22,0.00
2017,05,24,09,23,0.00
2017,05,24,09,24,3.70
2017,05,24,09,25,7.60
2017,05,24,09,26,7.00
2017,05,24,09,27,5.20
2017,05,24,09,28,6.90
2017,05,24,09,29,5.20
2017,05,24,09,30,4.80
2017,05,24,09,31,5.90
2017,05,24,09,32,5.20
2017,05,24,09,33,6.40
2017,05,24,09,34,5.90
2017,05,24,09,35,4.10
2017,05,24,09,36,5.30
2017,05,24,09,37,5.80
2017,05,24,09,38,3.00
2017,05,24,09,39,4.30
2017,05,24,09,40,3.90
2017,05,24,09,41,2.60
2017,05,24,09,42,0.10
2017,05,24,09,43,0.00
2017,05,24,09,44,0.00
2017,05,24,09,45,0.10
2017,05,24,09,46,0.00
2017,05,24,09,47,0.00
2017,05,24,09,48,0.00
2017,05,24,09,49,0.00
2017,05,24,09,50,0.00
2017,05,24,09,51,0.00
2017,05,24,09,52,0.10
2017,05,24,09,53,0.00
2017,05,24,09,54,0.00
2017,05,24,09,55,0.10
2017,05,24,09,56,0.00
2017,05,24,09,57,3.90
2017,05,24,09,58,2.10
2017,05,24,09,59,5.90
2017,05,24,10,00,1.60
2017,05,24,10,01,4.60
2017,05,24,10,02,6.30
2017,05,24,10,03,6.10
2017,05,24,10,04,6.90
2017,05,24,10,05,4.10
2017,05,24,10,06,6.50
2017,05,24,10,07,5.20
2017,05,24,10,08,4.90
2017,05,24,10,09,0.50
2017,05,24,10,10,0.10
2017,05,24,10,11,5.90
2017,05,24,10,12,7.60
2017,05,24,10,13,4.20
2017,05,24,10,14,7.40
2017,05,24,10,15,0.40
2017,05,24,10,16,3.90
2017,05,24,10,17,1.30
2017,05,24,10,18,5.00
2017,05,24,10,19,0.10
2017,05,24,10,20,0.30
2017,05,24,10,21,7.20
2017,05,24,10,22,5.10
2017,05,24,10,23,3.80
2017,05,24,10,24,3.70
2017,05,24,10,25,4.80
2017,05,24,10,26,5.30
2017,05,24,10,27,8.20
2017,05,24,10,28,7.60
2017,05,24,10,29,5.30
2017,05,24,10,30,5.60
2017,05,24,10,31,3.10
2017,05,24,10,32,0.10
2017,05,24,10,33,2.90
2017,05,24,10,34,0.10
2017,05,24,10,35,0.80
2017,05,24,10,36,6.00
2017,05,24,10,37,4.40
2017,05,24,10,38,2.20
2017,05,24,10,39,1.00
2017,05,24,10,40,1.40
2017,05,24,10,41,0.10
2017,05,24,10,42,0.00
2017,05,24,10,43,0.80
2017,05,24,10,44,1.70
2017,05,24,10,45,1.50
2017,05,24,10,46,0.00
2017,05,24,10,47,0.00
2017,05,24,10,48,1.50
2017,05,24,10,49,0.80
2017,05,24,10,50,0.00
2017,05,24,10,51,0.00
2017,05,24,10,52,0.20
2017,05,24,10,53,2.40
2017,05,24,10,54,1.70
2017,05,24,10,55,6.40
2017,05,24,10,56,6.40
2017,05,24,10,57,5.60
2017,05,24,10,58,3.40
2017,05,24,10,59,8.50
2017,05,24,11,00,8.40
2017,05,24,11,01,6.80
2017,05,24,11,02,5.60
2017,05,24,11,03,4.60
2017,05,24,11,04,5.90
2017,05,24,11,05,5.20
2017,05,24,11,06,4.70
2017,05,24,11,07,4.50
2017,05,24,11,08,1.90
2017,05,24,11,09,4.90
2017,05,24,11,10,7.30
2017,05,24,11,11,6.60
2017,05,24,11,12,6.10
2017,05,24,11,13,3.50
2017,05,24,11,14,6.20
2017,05,24,11,15,4.80
2017,05,24,11,16,5.10
2017,05,24,11,17,2.80
2017,05,24,11,18,5.20
2017,05,24,11,19,3.10
2017,05,24,11,20,0.10
2017,05,24,11,21,3.90
2017,05,24,11,22,0.50
2017,05,24,11,23,1.50
2017,05,24,11,24,5.90
2017,05,24,11,25,6.90
2017,05,24,11,26,6.20
2017,05,24,11,27,7.00
2017,05,24,11,28,6.10
2017,05,24,11,29,6.40
2017,05,24,11,30,4.20
2017,05,24,11,31,7.50
2017,05,24,11,32,5.70
2017,05,24,11,33,7.40
2017,05,24,11,34,4.70
2017,05,24,11,35,8.50
2017,05,24,11,36,6.90
2017,05,24,11,37,4.20
2017,05,24,11,38,6.40
2017,05,24,11,39,9.50
2017,05,24,11,40,4.80
2017,05,24,11,41,7.40
2017,05,24,11,42,8.50
2017,05,24,11,43,3.40
2017,05,24,11,44,4.30
2017,05,24,11,45,5.70
2017,05,24,11,46,5.80
2017,05,24,11,47,5.90
2017,05,24,11,48,4.60
2017,05,24,11,49,4.50
2017,05,24,11,50,4.30
2017,05,24,11,51,5.00
2017,05,24,11,52,7.40
2017,05,24,11,53,5.00
2017,05,24,11,54,3.10
2017,05,24,11,55,4.40
2017,05,24,11,56,6.30
2017,05,24,11,57,7.80
2017,05,24,11,58,11.20
2017,05,24,11,59,4.90
2017,05,24,12,00,7.20
2017,05,24,12,01,5.10
2017,05,24,12,02,4.80
2017,05,24,12,03,7.30
2017,05,24,12,04,5.20
2017,05,24,12,05,6.10
2017,05,24,12,06,7.10
2017,05,24,12,07,5.90
2017,05,24,12,08,5.80
2017,05,24,12,09,6.30
2017,05,24,12,10,5.40
2017,05,24,12,11,5.50
2017,05,24,12,12,6.50
2017,05,24,12,13,3.20
2017,05,24,12,14,6.20
2017,05,24,12,15,5.90
2017,05,24,12,16,4.70
2017,05,24,12,17,6.00
2017,05,24,12,18,7.80
2017,05,24,12,19,7.00
2017,05,24,12,20,6.10
2017,05,24,12,21,5.50
2017,05,24,12,22,4.40
2017,05,24,12,23,4.20
2017,05,24,12,24,7.50
2017,05,24,12,25,5.40
2017,05,24,12,26,6.70
2017,05,24,12,27,3.70
2017,05,24,12,28,2.40
2017,05,24,12,29,2.80
2017,05,24,12,30,5.60
2017,05,24,12,31,6.30
2017,05,24,12,32,8.30
2017,05,24,12,33,8.40
2017,05,24,12,34,8.40
2017,05,24,12,35,5.90
2017,05,24,12,36,7.20
2017,05,24,12,37,4.80
2017,05,24,12,38,4.50
2017,05,24,12,39,2.50
2017,05,24,12,40,5.20
2017,05,24,12,41,3.80
2017,05,24,12,42,4.40
2017,05,24,12,43,3.20
2017,05,24,12,44,5.30
2017,05,24,12,45,5.60
2017,05,24,12,46,2.70
2017,05,24,12,47,3.10
2017,05,24,12,48,8.20
2017,05,24,12,49,2.70
2017,05,24,12,50,1.10
2017,05,24,12,51,3.70
2017,05,24,12,52,4.20
2017,05,24,12,53,1.30
2017,05,24,12,54,1.50
2017,05,24,12,55,2.20
2017,05,24,12,56,3.10
2017,05,24,12,57,5.90
2017,05,24,12,58,6.10
2017,05,24,12,59,6.30
2017,05,24,13,00,5.90
2017,05,24,13,01,6.30
2017,05,24,13,02,3.10
2017,05,24,13,03,4.70
2017,05,24,13,04,6.40
2017,05,24,13,05,8.30
2017,05,24,13,06,9.00
2017,05,24,13,07,8.40
2017,05,24,13,08,5.10
2017,05,24,13,09,5.00
2017,05,24,13,10,4.40
2017,05,24,13,11,6.00
2017,05,24,13,12,5.60
2017,05,24,13,13,3.10
2017,05,24,13,14,5.20
2017,05,24,13,15,3.60
2017,05,24,13,16,9.90
2017,05,24,13,17,13.70
2017,05,24,13,18,8.80
2017,05,24,13,19,5.50
2017,05,24,13,20,4.70
2017,05,24,13,21,6.40
2017,05,24,13,22,3.80
2017,05,24,13,23,2.50
2017,05,24,13,24,6.40
2017,05,24,13,25,7.80
2017,05,24,13,26,6.70
2017,05,24,13,27,7.00
2017,05,24,13,28,6.40
2017,05,24,13,29,5.60
2017,05,24,13,30,8.00
2017,05,24,13,31,7.10
2017,05,24,13,32,8.10
2017,05,24,13,33,6.80
2017,05,24,13,34,6.60
2017,05,24,13,35,5.80
2017,05,24,13,36,6.30
2017,05,24,13,37,5.30
2017,05,24,13,38,5.00
2017,05,24,13,39,6.70
2017,05,24,13,40,5.20
2017,05,24,13,41,7.40
2017,05,24,13,42,4.90
2017,05,24,13,43,4.40
2017,05,24,13,44,7.10
2017,05,24,13,45,7.90
2017,05,24,13,46,7.60
2017,05,24,13,47,4.60
2017,05,24,13,48,5.40
2017,05,24,13,49,6.20
2017,05,24,13,50,3.40
2017,05,24,13,51,5.00
2017,05,24,13,52,5.40
2017,05,24,13,53,5.90
2017,05,24,13,54,7.30
2017,05,24,13,55,5.10
2017,05,24,13,56,4.80
2017,05,24,13,57,5.20
2017,05,24,13,58,6.80
2017,05,24,13,59,7.70
2017,05,24,14,00,6.90
2017,05,24,14,01,6.40
2017,05,24,14,02,5.10
2017,05,24,14,03,6.80
2017,05,24,14,04,5.50
2017,05,24,14,05,7.80
2017,05,24,14,06,6.20
2017,05,24,14,07,4.80
2017,05,24,14,08,5.30
2017,05,24,14,09,7.60
2017,05,24,14,10,6.80
2017,05,24,14,11,8.40
2017,05,24,14,12,7.20
2017,05,24,14,13,7.80
2017,05,24,14,14,10.20
2017,05,24,14,15,8.00
2017,05,24,14,16,8.80
2017,05,24,14,17,6.40
2017,05,24,14,18,5.10
2017,05,24,14,19,5.40
2017,05,24,14,20,6.60
2017,05,24,14,21,6.20
2017,05,24,14,22,5.40
2017,05,24,14,23,7.00
2017,05,24,14,24,8.20
2017,05,24,14,25,6.10
2017,05,24,14,26,7.10
2017,05,24,14,27,7.30
2017,05,24,14,28,6.70
2017,05,24,14,29,8.70
2017,05,24,14,30,7.30
2017,05,24,14,31,6.90
2017,05,24,14,32,7.60
2017,05,24,14,33,5.30
2017,05,24,14,34,7.70
2017,05,24,14,35,6.10
2017,05,24,14,36,6.70
2017,05,24,14,37,8.00
2017,05,24,14,38,9.40
2017,05,24,14,39,7.30
2017,05,24,14,40,7.80
2017,05,24,14,41,7.40
2017,05,24,14,42,10.60
2017,05,24,14,43,11.00
2017,05,24,14,44,8.30
2017,05,24,14,45,9.20
2017,05,24,14,46,8.40
2017,05,24,14,47,6.90
2017,05,24,14,48,7.60
2017,05,24,14,49,8.80
2017,05,24,14,50,10.30
2017,05,24,14,51,6.00
2017,05,24,14,52,4.60
2017,05,24,14,53,6.80
2017,05,24,14,54,7.50
2017,05,24,14,55,6.20
2017,05,24,14,56,6.90
2017,05,24,14,57,4.30
2017,05,24,14,58,5.50
2017,05,24,14,59,5.50
2017,05,24,15,00,4.20
2017,05,24,15,01,4.10
2017,05,24,15,02,5.80
2017,05,24,15,03,5.40
2017,05,24,15,04,6.80
2017,05,24,15,05,6.40
2017,05,24,15,06,6.50
2017,05,24,15,07,6.40
2017,05,24,15,08,6.90
2017,05,24,15,09,5.10
2017,05,24,15,10,6.40
2017,05,24,15,11,5.40
2017,05,24,15,12,5.60
2017,05,24,15,13,7.40
2017,05,24,15,14,4.50
2017,05,24,15,15,6.10
2017,05,24,15,16,5.00
2017,05,24,15,17,5.80
2017,05,24,15,18,4.70
2017,05,24,15,19,6.30
2017,05,24,15,20,5.60
2017,05,24,15,21,6.40
2017,05,24,15,22,7.00
2017,05,24,15,23,4.80
2017,05,24,15,24,6.20
2017,05,24,15,25,4.50
2017,05,24,15,26,5.10
2017,05,24,15,27,6.60
2017,05,24,15,28,8.40
2017,05,24,15,29,6.70
2017,05,24,15,30,6.20
2017,05,24,15,31,6.70
2017,05,24,15,32,6.70
2017,05,24,15,33,7.70
2017,05,24,15,34,9.00
2017,05,24,15,35,6.50
2017,05,24,15,36,8.30
2017,05,24,15,37,5.10
2017,05,24,15,38,5.10
2017,05,24,15,39,8.20
2017,05,24,15,40,4.00
2017,05,24,15,41,5.90
2017,05,24,15,42,4.20
2017,05,24,15,43,6.10
2017,05,24,15,44,4.00
2017,05,24,15,45,5.10
2017,05,24,15,46,4.90
2017,05,24,15,47,5.00
2017,05,24,15,48,3.80
2017,05,24,15,49,2.40
2017,05,24,15,50,4.30
2017,05,24,15,51,3.60
2017,05,24,15,52,5.00
2017,05,24,15,53,2.80
2017,05,24,15,54,4.30
2017,05,24,15,55,4.80
2017,05,24,15,56,6.00
2017,05,24,15,57,5.50
2017,05,24,15,58,5.50
2017,05,24,15,59,4.40
2017,05,24,16,00,5.00
2017,05,24,16,01,5.10
2017,05,24,16,02,8.00
2017,05,24,16,03,8.10
2017,05,24,16,04,6.20
2017,05,24,16,05,5.90
2017,05,24,16,06,4.90
2017,05,24,16,07,5.00
2017,05,24,16,08,5.40
2017,05,24,16,09,8.90
2017,05,24,16,10,6.20
2017,05,24,16,11,4.80
2017,05,24,16,12,5.90
2017,05,24,16,13,7.90
2017,05,24,16,14,6.60
2017,05,24,16,15,8.60
2017,05,24,16,16,8.90
2017,05,24,16,17,6.90
2017,05,24,16,18,7.50
2017,05,24,16,19,6.40
2017,05,24,16,20,9.70
2017,05,24,16,21,7.60
2017,05,24,16,22,7.40
2017,05,24,16,23,5.40
2017,05,24,16,24,4.50
2017,05,24,16,25,4.90
2017,05,24,16,26,6.10
2017,05,24,16,27,6.50
2017,05,24,16,28,5.90
2017,05,24,16,29,8.60
2017,05,24,16,30,5.90
2017,05,24,16,31,2.40
2017,05,24,16,32,3.70
2017,05,24,16,33,3.60
2017,05,24,16,34,6.90
2017,05,24,16,35,4.30
2017,05,24,16,36,6.40
2017,05,24,16,37,4.20
2017,05,24,16,38,4.80
2017,05,24,16,39,6.20
2017,05,24,16,40,6.00
2017,05,24,16,41,4.20
2017,05,24,16,42,6.70
2017,05,24,16,43,6.60
2017,05,24,16,44,7.30
2017,05,24,16,45,5.70
2017,05,24,16,46,6.30
2017,05,24,16,47,1.90
2017,05,24,16,48,2.00
2017,05,24,16,49,5.10
2017,05,24,16,50,4.30
2017,05,24,16,51,6.00
2017,05,24,16,52,1.40
2017,05,24,16,53,3.00
2017,05,24,16,54,4.10
2017,05,24,16,55,4.30
2017,05,24,16,56,4.80
2017,05,24,16,57,4.30
2017,05,24,16,58,4.50
2017,05,24,16,59,6.20
2017,05,24,17,00,7.50
2017,05,24,17,01,5.70
2017,05,24,17,02,5.20
2017,05,24,17,03,3.10
2017,05,24,17,04,1.80
2017,05,24,17,05,2.00
2017,05,24,17,06,0.90
2017,05,24,17,07,1.00
2017,05,24,17,08,6.40
2017,05,24,17,09,6.30
2017,05,24,17,10,2.60
2017,05,24,17,11,3.60
2017,05,24,17,12,4.30
2017,05,24,17,13,4.70
2017,05,24,17,14,4.90
2017,05,24,17,15,2.30
2017,05,24,17,16,5.10
2017,05,24,17,17,3.40
2017,05,24,17,18,6.60
2017,05,24,17,19,2.70
2017,05,24,17,20,6.10
2017,05,24,17,21,6.40
2017,05,24,17,22,5.80
2017,05,24,17,23,6.60
2017,05,24,17,24,4.30
2017,05,24,17,25,6.60
2017,05,24,17,26,3.90
2017,05,24,17,27,0.80
2017,05,24,17,28,5.60
2017,05,24,17,29,4.30
2017,05,24,17,30,4.00
2017,05,24,17,31,5.70
2017,05,24,17,32,2.10
2017,05,24,17,33,1.00
2017,05,24,17,34,0.00
2017,05,24,17,35,0.10
2017,05,24,17,36,0.10
2017,05,24,17,37,0.00
2017,05,24,17,38,2.10
2017,05,24,17,39,2.90
2017,05,24,17,40,5.40
2017,05,24,17,41,4.20
2017,05,24,17,42,1.20
2017,05,24,17,43,3.90
2017,05,24,17,44,5.50
2017,05,24,17,45,2.50
2017,05,24,17,46,3.30
2017,05,24,17,47,3.80
2017,05,24,17,48,2.40
2017,05,24,17,49,0.30
2017,05,24,17,50,7.00
2017,05,24,17,51,6.40
2017,05,24,17,52,1.90
2017,05,24,17,53,4.80
2017,05,24,17,54,7.00
2017,05,24,17,55,4.20
2017,05,24,17,56,3.60
2017,05,24,17,57,9.40
2017,05,24,17,58,4.70
2017,05,24,17,59,5.80
2017,05,24,18,00,3.50
2017,05,24,18,01,5.50
2017,05,24,18,02,4.80
2017,05,24,18,03,5.80
2017,05,24,18,04,6.40
2017,05,24,18,05,3.30
2017,05,24,18,06,4.40